Skip Page Navigation
NASA JPL Caltech
NASA Logo - Jet Propulsion Laboratory + View the NASA Portal
+ Center for Near-Earth Object Studies
JPL Home Earth Solar System Stars & Galaxies Technology
JPL Solar System Dynamics
BODIES ORBITS EPHEMERIDES TOOLS PHYSICAL DATA DISCOVERY FAQ SITE MAP
IMPORTANT: The SSD Announcement email list is now available. Major changes are coming in the near future, including possible hostname and/or URL changes. To be notified of such changes, subscribe to this email list.

Please visit this page for more details.


JPL Small-Body Database Browser
Search: [ help ]  
35937 (1999 JD124)
Classification: Main-belt Asteroid          SPK-ID: 2035937
Ephemeris | Orbit Diagram | Orbital Elements | Mission Design | Physical Parameters | Discovery Circumstances ]

[ show orbit diagram ]
Orbital Elements at Epoch 2458600.5 (2019-Apr-27.0) TDB
Reference: JPL 26 (heliocentric ecliptic J2000)
 Element Value Uncertainty (1-sigma)   Units 
e .1692305338912306 3.8825e-08  
a 2.266399870622944 7.9234e-09 au
q 1.882855810506407 8.9962e-08 au
i 6.241496701072125 3.9599e-06 deg
node 106.4162480215606 3.6302e-05 deg
peri 143.506441526062 3.7956e-05 deg
M 300.9715017238702 1.1069e-05 deg
tp 2458804.844270754480
(2019-Nov-17.34427075)
3.8596e-05 TDB
period 1246.244434806516
3.41
6.5353e-06
1.789e-08
d
yr
n .2888678897538198 1.5148e-09 deg/d
Q 2.649943930739481 9.2643e-09 au
  Orbit Determination Parameters
   # obs. used (total)      1369  
   data-arc span      9343 days (25.58 yr)  
   first obs. used      1993-10-10  
   last obs. used      2019-05-10  
   planetary ephem.      DE431  
   SB-pert. ephem.      SB431-N16  
   condition code      0  
   norm. resid. RMS      .53106  
   source      ORB  
   producer      Otto Matic  
   solution date      2019-May-30 03:56:00  

Additional Information
 Earth MOID = .872446 au 
 Jupiter MOID = 2.39446 au 
 T_jup = 3.589 
[ show covariance matrix ]

Ephemeris | Orbit Diagram | Orbital Elements | Mission Design | Physical Parameters | Discovery Circumstances ]

Physical Parameter Table
Parameter Symbol Value Units Sigma Reference Notes
absolute magnitude H 15.0   n/a MPO365676  

35937 (1999 JD124)          Discovered 1999-May-14 by LINEAR at Socorro
Reference: 20020227/Numbers.arcLast Updated: 2004-04-19

Alternate Designations
 1999 JD124 = 1993 UE7 
Ephemeris | Orbit Diagram | Orbital Elements | Mission Design | Physical Parameters | Discovery Circumstances ]
ABOUT SSD CREDITS/AWARDS PRIVACY/COPYRIGHT GLOSSARY LINKS
FirstGov
(server date/time)  
NASA Home Page
Site Manager:   Ryan S. Park
Webmaster  Alan B. Chamberlin